Location: Berg
(47.2344°N, 9.5296°E)
Time: 23:13:17
(UTC+00:00)

Nauka - Pass Details

Date: 19 September 2021
Orbit: 418 x 423 km, 51.6° (Epoch: 14 October)

Event Time Altitude Azimuth Distance (km) Brightness Sun altitude
Rises 19:33:31 0° 258° (WSW) 2,359 ? -21.7°
Reaches altitude 10° 19:35:38 10° 263° (W) 1,498 ? -22.0°
Enters shadow 19:38:40 53° 318° (NW) 522 ? -22.5°
